Regional Weather Roundup
Issued by NWS

Home | Current Version | Previous Version | Text Only | Print | Product List | Glossary On
Versions: 1 2 3 4 5 6 7 8 9 10 11 12 13 14 15 16 17 18 19 20 21 22 23 24 25 26 27 28
000
ASUS44 KLIX 151813
RWRLA
LOUISIANA WEATHER ROUNDUP
NATIONAL WEATHER SERVICE NEW ORLEANS LA
1200 PM CST FRI DEC 15 2017

NOTE: "FAIR" INDICATES FEW OR NO CLOUDS BELOW 12,000 FEET WITH NO
      SIGNIFICANT WEATHER AND/OR OBSTRUCTIONS TO VISIBILITY.
      SKY/WX - SKY CONDITION AND SIGNIFICANT WEATHER.
      TMP - AIR TEMPERATURE.    DP   - DEWPOINT TEMPERATURE.
      RH  - RELATIVE HUMIDITY.  PRES - PRESSURE.
      HX  - HEAT INDEX.         WCI  - WIND CHILL INDEX.

*  THESE STATIONS ARE NOT NWS OR FAA STATIONS AND ARE NOT UNDER
   NWS QUALITY CONTROL.

LAZ040-048-061>063-065-066-069-151900-
SOUTHEAST LOUISIANA

CITY           SKY/WX    TMP DP  RH WIND       PRES   REMARKS
N.O. INTL ARPT LGT RAIN  48  39  71 N12       30.23F
6HR MIN TEMP:  48; 6HR MAX TEMP:  51; 6HR PCP: TRACE;

N.O. LAKEFRONT CLOUDY    48  40  73 N14       30.24F
6HR MIN TEMP:  48; 6HR MAX TEMP:  51;

N.O. DOWNTOWN* LGT RAIN  47  38  71 N9G18     30.23F
6HR MIN TEMP:  47; 6HR MAX TEMP:  52; 6HR PCP: TRACE;

RESERVE*       LGT RAIN  48  37  64 N13       30.24F
6HR MIN TEMP:  47; 6HR MAX TEMP:  51;

SLIDELL        CLOUDY    48  36  63 N8        30.24R
6HR MIN TEMP:  47; 6HR MAX TEMP:  49; 6HR PCP: TRACE;

BATON ROUGE    CLOUDY    48  31  51 N8        30.24F
6HR MIN TEMP:  45; 6HR MAX TEMP:  48;

BOOTHVILLE     CLOUDY    51  45  79 N10G18    30.21R
6HR MIN TEMP:  51; 6HR MAX TEMP:  55; 6HR PCP: TRACE;

BELLE CHASSE   LGT RAIN  48  44  86 N9        30.21F
6HR MIN TEMP:  47; 6HR MAX TEMP:  50; 6HR PCP: TRACE;

BOGALUSA*      MOCLDY    48  33  55 MISG      30.24F
6HR MIN TEMP:  45; 6HR MAX TEMP:  49;

GALLIANO*      LGT RAIN  48  42  78 N9        30.22F
6HR MIN TEMP:  48; 6HR MAX TEMP:  51; 6HR PCP:  0.07;

NEW ROADS*     CLOUDY    47  30  52 N8        30.26F
6HR MIN TEMP:  44; 6HR MAX TEMP:  47;

GONZALES*      MOCLDY    47  35  60 N6        30.23F
6HR MIN TEMP:  46; 6HR MAX TEMP:  48;

HAMMOND*       LGT RAIN  46  32  57 N6        30.24F
HOUMA*         LGT RAIN  46  43  87 N10       30.21F
PORT FOURCHON* CLEAR     50  43  76 N20       30.21F

$$

LAZ041-044-053-054-151900-
SOUTHWEST LOUISIANA

CITY           SKY/WX    TMP DP  RH WIND       PRES   REMARKS
LAKE CHARLES   CLOUDY    50  33  52 NE14      30.28F
6HR MIN TEMP:  47; 6HR MAX TEMP:  50;

LAFAYETTE      LGT RAIN  46  39  76 N8        30.25F
6HR MIN TEMP:  46; 6HR MAX TEMP:  48; 6HR PCP:  0.01;

PATTERSON      CLOUDY    47  41  80 N8        30.24F
6HR MIN TEMP:  46; 6HR MAX TEMP:  50; 6HR PCP:  0.03;

SALT POINT       N/A     47  42  83 VRB6      30.22F
6HR MIN TEMP:  47; 6HR MAX TEMP:  50;

NEW IBERIA     LGT RAIN  47  35  63 NE13      30.24F
6HR MIN TEMP:  47; 6HR MAX TEMP:  49; 6HR PCP:  0.01;

CHENAULT AIRPK NOT AVBL

$$

LAZ027-028-151900-
CENTRAL LOUISIANA

CITY           SKY/WX    TMP DP  RH WIND       PRES   REMARKS
FORT POLK      CLOUDY    47  29  50 N7        30.27F
6HR MIN TEMP:  41; 6HR MAX TEMP:  47;

ALEXANDRIA INT MOSUNNY   48  28  46 N7        30.28F
6HR MIN TEMP:  40; 6HR MAX TEMP:  48;

ALEXANDRIA     MOSUNNY   47  31  53 VRB3      30.28F
6HR MIN TEMP:  39; 6HR MAX TEMP:  47;


$$

LAZ001-002-151900-
NORTHWEST LOUISIANA

CITY           SKY/WX    TMP DP  RH WIND       PRES   REMARKS
SHREVEPORT     CLOUDY    49  30  48 S6        30.28F
6HR MIN TEMP:  39; 6HR MAX TEMP:  49;

BARKSDALE AFB  CLOUDY    47  27  44 S6        30.28F
6HR MIN TEMP:  35; 6HR MAX TEMP:  47;

DTN SHREVEPORT MOSUNNY   48  28  46 SE5       30.29F
6HR MIN TEMP:  38; 6HR MAX TEMP:  49;


$$

LAZ014-016-151900-
NORTHEAST LOUISIANA

CITY           SKY/WX    TMP DP  RH WIND       PRES   REMARKS
MONROE         CLOUDY    47  28  47 VRB5      30.30F
6HR MIN TEMP:  37; 6HR MAX TEMP:  47;

TALLULAH       CLOUDY    46  27  47 NE8       30.29F
6HR MIN TEMP:  36; 6HR MAX TEMP:  46;


$$





USA.gov is the U.S. government's official web portal to all federal, state and local government web resources and services.